Location: Chomutov
(50.4500°N, 13.4333°E)
Time: 19:03:52
(UTC+02:00)

FO-29 - Pass Details

Date: 27 September 2021
Orbit: 800 x 1321 km, 98.6° (Epoch: 23 October)

Event Time Altitude Azimuth Distance (km) Brightness Sun altitude
Exits shadow 19:18:12 - 98° (E) 3,737 11.8 -4.8°
Reaches altitude 10° 19:19:50 10° 89° (E) 3,326 11.6 -5.1°
Maximum altitude 19:25:06 20° 47° (NE) 2,645 11.4 -5.9°
Drops below altitude 10° 19:30:24 10° 4° (N) 3,350 12.3 -6.8°
Sets 19:33:53 0° 349° (N) 4,292 13.1 -7.3°
